Zurück zum Katalog

CZ-6A DEB

AktivPO
NORAD 61142·DEBRIS·🇨🇳 China

Gestartet Aug 6, 2024 von Taiyuan Satellite Launch Center

Loading…

Nächste Überflüge (nächste 24 Stunden)

TLE

AktuellSource: Space-Track

Epoche: Sep 13, 2026, 22:11 UTC

1 61142U 24140QL  26256.92473647  .00001032  00000-0  22180-3 0  9990
2 61142  88.8354 244.2227 0104932 310.0776  49.1267 14.54441726109331

Verfolge CZ-6A DEB in Echtzeit mit AllMySat

Download on the App Store